Date,TemperatureHighF,TemperatureAvgF,TemperatureLowF,DewpointHighF,DewpointAvgF,DewpointLowF,HumidityHigh,HumidityAvg,HumidityLow,PressureMaxIn,PressureMinIn,WindSpeedMaxMPH,WindSpeedAvgMPH,GustSpeedMaxMPH,PrecipitationSumIn
2013-7-1,80,72,58,60,52,48,87,52,33,0.00,40.00,17,8,24,0.00
2013-7-2,85,70,58,60,57,53,95,67,36,0.00,40.00,11,4,17,0.00
2013-7-3,83,71,61,62,59,54,94,68,37,0.00,40.00,9,3,14,0.00
2013-7-4,88,75,60,63,57,53,94,57,32,0.00,40.00,7,3,11,0.00
2013-7-5,89,78,64,64,60,56,92,59,35,0.00,40.00,9,5,17,0.00
2013-7-6,92,78,67,67,64,62,87,63,38,0.00,40.00,10,5,18,0.00
2013-7-7,92,81,70,69,67,64,87,63,41,0.00,40.00,13,5,22,0.00
2013-7-8,88,80,74,76,69,-100,88,71,57,0.00,40.00,10,5,17,0.00
2013-7-9,94,84,76,81,75,72,92,75,50,0.00,40.00,9,3,16,0.01
2013-7-10,86,78,68,80,60,-100,93,59,37,0.00,40.00,16,7,24,0.00
2013-7-11,86,74,61,64,57,52,94,61,32,0.00,40.00,9,4,14,0.00
2013-7-12,87,75,62,62,58,52,92,58,30,0.00,40.00,13,6,21,0.00
2013-7-13,80,71,63,65,61,57,88,70,52,0.00,40.00,8,4,13,0.00
2013-7-14,88,77,63,68,62,59,93,64,38,0.00,40.00,13,5,17,0.00
2013-7-15,92,80,69,73,69,66,94,71,46,0.00,40.00,9,4,18,0.00
2013-7-16,94,84,74,75,71,68,92,67,43,0.00,40.00,9,4,16,0.00
2013-7-17,98,86,74,75,71,67,91,62,38,0.00,40.00,7,2,12,0.00
2013-7-18,97,86,74,74,69,64,91,60,36,0.00,40.00,12,4,19,0.00
2013-7-19,97,88,77,70,68,67,74,53,38,0.00,40.00,16,6,24,0.00
2013-7-20,91,82,67,66,60,-100,90,50,34,0.00,40.00,9,4,13,0.01
2013-7-21,87,74,68,71,67,64,95,80,50,0.00,40.00,18,4,27,3.90
2013-7-22,93,79,67,73,68,60,94,71,44,0.00,40.00,16,5,26,0.08
2013-7-23,81,73,66,65,60,53,91,65,39,0.00,40.00,17,6,26,0.00
2013-7-24,81,73,62,65,57,54,91,60,43,0.00,40.00,11,4,16,0.00
2013-7-25,86,74,61,67,61,57,94,67,39,0.00,40.00,9,3,15,0.00
2013-7-26,82,73,63,69,62,52,94,71,37,0.00,40.00,17,7,28,0.39
2013-7-27,70,63,56,57,50,44,92,65,39,0.00,40.00,17,8,24,0.00
2013-7-28,77,65,54,56,50,47,90,61,37,0.00,40.00,14,6,20,0.00
2013-7-29,77,67,54,59,55,52,95,67,44,0.00,40.00,10,4,13,0.00
2013-7-30,72,68,65,68,65,59,94,90,70,0.00,40.00,9,5,12,0.15
2013-7-31,83,74,67,69,64,61,94,75,48,0.00,40.00,11,5,18,0.00